Wind_Speed
8 10 11 12 14 15 16 18 20 21 22 22 21 21 21 22 22 22 22 22 21 20 20 20 21 20 20 20 20 20 20 20 20 21 21 22 23 23 24 24 25 25 25
8 8 10 12 14 15 16 17 20 21 22 22 22 22 22 23 23 24 24 24 23 22 22 22 22 22 22 22 22 22 22 22 22 22 23 24 25 26 27 28 28 28 29
8 9 10 11 13 14 15 17 19 20 21 22 23 23 23 24 25 25 25 24 24 24 23 23 24 24 24 23 23 24 25 25 25 25 26 26 26 27 28 29 30 31 32
9 9 10 11 12 13 15 17 18 18 20 21 21 22 23 24 24 24 24 25 24 24 24 24 24 24 25 25 26 26 26 27 27 28 28 29 29 30 31 32 33 34 34
9 10 11 11 12 13 14 16 17 18 18 19 20 20 22 22 23 23 24 24 24 25 25 25 24 25 26 27 27 27 29 30 31 31 31 32 32 33 34 35 35 36 37
12 11 12 12 12 13 14 15 16 17 18 19 20 21 22 23 23 23 23 24 25 26 26 26 25 26 27 27 28 29 30 31 32 33 33 34 35 36 37 37 38 39 39
12 12 13 12 13 14 14 15 16 17 19 20 20 21 22 24 25 25 25 25 26 26 26 26 27 28 29 29 30 31 32 33 34 35 35 35 36 38 39 39 40 40 40
12 12 13 13 13 13 15 16 17 18 19 20 21 22 22 23 23 23 23 25 27 26 27 28 29 29 30 31 33 33 34 35 36 36 37 38 39 41 42 42 42 43 43
13 13 13 13 13 14 15 16 16 17 18 19 19 21 21 22 23 23 24 25 26 27 28 29 31 32 33 33 34 35 36 37 38 39 40 41 42 44 44 45 45 46 45
16 15 15 15 15 15 16 17 17 17 18 18 20 21 22 24 25 25 26 27 28 29 30 31 33 34 35 35 36 37 38 39 40 41 42 43 44 44 46 47 47 48 49
16 16 16 16 16 17 17 17 17 18 18 19 20 22 23 23 24 25 26 28 30 31 32 34 35 37 36 37 38 39 40 40 42 43 44 45 46 46 47 48 49 50 51
18 17 18 18 17 17 17 18 18 18 19 20 21 22 23 24 25 26 28 29 30 32 34 35 36 37 38 39 40 40 41 42 43 44 45 46 47 48 49 51 52 53 53
18 19 19 19 20 20 20 20 20 20 21 21 22 23 24 24 26 27 28 29 31 32 33 35 37 39 40 40 41 42 43 44 45 46 47 47 49 50 51 52 53 54 54
19 19 19 20 21 20 20 20 20 20 21 22 23 24 25 27 28 29 30 31 32 33 35 37 39 40 41 42 44 45 46 47 47 48 48 49 50 51 51 52 53 53 53
19 19 20 21 22 22 21 21 21 21 22 23 24 25 26 27 29 30 30 32 33 35 36 38 40 41 42 44 46 47 47 48 49 49 49 49 50 51 51 51 51 52 52
18 18 18 17 18 19 20 21 21 22 23 24 24 25 26 27 28 29 30 32 34 36 38 40 42 44 44 45 46 47 47 48 49 49 49 50 50 50 51 51 51 51 50
16 17 17 18 18 19 19 20 21 22 22 24 25 26 28 29 30 32 34 34 36 37 38 39 40 41 43 44 45 45 46 47 47 48 48 48 49 49 49 50 50 50 50
16 16 16 17 19 20 21 21 22 23 24 25 26 28 30 31 32 34 35 36 37 38 39 40 41 41 41 41 42 43 44 45 46 46 46 47 47 47 47 47 47 46 45
16 17 18 20 21 22 22 23 24 24 25 27 29 30 32 33 34 35 36 37 38 39 40 40 40 41 40 40 41 41 42 42 42 42 42 42 42 42 42 41 41 40 40
18 19 20 21 22 22 23 23 25 26 27 28 30 32 33 34 35 36 36 37 38 39 40 40 40 40 40 40 40 40 40 39 39 39 39 39 38 38 37 37 37 37 37
18 19 19 20 22 23 24 25 27 28 29 31 32 33 34 35 36 37 38 38 38 39 39 39 38 38 38 38 38 38 38 38 37 37 37 36 36 34 34 33 33 33 33
18 19 21 22 23 24 26 27 28 30 31 33 34 35 36 36 37 37 38 38 38 38 37 37 37 37 36 36 37 36 36 35 35 34 34 34 33 32 31 30 30 29 28
20 22 23 24 25 26 27 29 30 32 33 34 35 36 36 37 37 37 37 37 37 37 36 36 36 36 36 35 35 34 34 34 33 32 31 31 30 29 28 27 27 27 26
22 23 25 26 27 28 29 31 32 34 35 35 36 36 36 36 36 37 37 37 37 36 36 36 36 35 35 34 34 33 32 31 30 29 29 28 27 27 26 25 25 25 25
24 25 26 27 28 30 31 32 33 34 35 35 35 35 35 35 35 36 36 36 36 35 35 34 34 33 32 32 31 30 29 28 27 26 25 24 24 23 24 24 25 24 24
25 26 27 29 30 31 32 33 33 34 34 34 33 33 33 34 34 34 34 34 34 33 32 32 31 30 30 29 28 27 26 25 23 23 22 22 22 22 22 23 23 23 22
Wind_Direction
245 238 230 224 221 221 222 221 220 219 220 224 226 229 229 228 231 234 236 239 242 246 249 250 250 253 257 260 261 261 262 264 266 266 268 268 267 267 269 271 273 274 275
246 240 234 229 224 224 224 221 219 221 224 227 229 231 233 233 235 238 241 242 243 247 250 252 252 253 257 260 262 264 265 266 267 269 270 271 270 270 271 272 273 275 276
249 245 238 232 225 225 225 221 221 224 227 230 231 232 236 237 238 241 242 244 246 248 252 255 256 255 258 262 265 267 268 269 270 271 272 273 273 273 274 274 274 275 275
251 250 244 236 230 228 225 223 224 225 228 229 233 236 240 241 243 245 245 247 249 251 254 257 256 257 260 264 267 268 270 271 272 273 274 275 275 274 275 276 275 276 277
252 251 245 238 234 232 228 227 228 229 228 232 237 242 245 244 245 247 249 250 252 254 255 255 257 259 262 265 267 269 271 273 274 275 276 276 277 277 278 278 278 278 278
253 251 245 241 237 235 233 234 234 233 235 238 240 244 245 245 246 248 251 254 257 257 256 256 257 259 262 266 268 271 273 275 276 277 277 277 277 278 278 279 279 279 278
254 251 246 245 244 242 239 236 236 237 238 242 244 246 246 245 246 249 254 256 258 259 258 259 261 263 265 268 270 273 274 276 277 278 278 278 279 279 280 281 282 281 279
255 250 249 249 248 249 247 246 245 243 245 247 248 251 253 252 252 255 256 258 259 260 260 262 264 266 269 271 273 274 276 278 278 279 279 278 279 280 281 282 282 282 281
253 251 252 253 252 252 252 251 250 248 248 251 252 253 255 257 258 259 260 262 264 264 264 265 267 269 272 272 273 274 276 277 278 279 280 279 279 280 281 282 283 282 282
251 252 254 253 257 256 255 253 251 250 251 252 255 257 259 263 264 265 267 268 269 270 269 270 272 272 273 274 275 276 277 278 278 279 279 280 280 280 280 281 282 283 282
251 255 259 260 261 259 259 258 257 258 259 258 260 263 265 267 269 271 274 275 274 275 274 274 276 274 273 275 277 278 278 278 279 280 280 281 281 281 281 282 283 283 282
251 253 258 261 262 263 260 259 263 263 264 265 267 270 272 273 273 274 276 278 279 277 276 277 278 275 275 276 278 279 279 280 281 281 281 281 281 281 282 283 284 283 283
257 254 258 261 265 267 267 265 266 267 269 270 272 273 275 275 276 279 281 282 282 281 280 279 279 279 279 279 280 280 281 281 281 281 281 282 283 283 284 284 284 284 283
261 261 261 263 267 271 269 267 269 272 275 277 279 278 280 281 282 282 284 285 286 285 284 284 284 282 281 281 281 281 281 282 282 281 282 283 283 284 285 285 284 284 283
264 264 264 265 268 269 273 275 275 276 279 281 282 284 286 287 286 286 286 287 287 286 286 286 286 285 284 284 283 282 282 282 282 282 283 284 285 286 286 285 284 284 283
266 266 266 269 272 272 275 277 278 279 281 283 285 286 288 291 291 292 292 291 291 290 289 289 288 286 286 286 286 285 285 285 284 284 285 285 285 285 285 285 284 284 284
264 266 267 271 274 275 278 280 282 283 285 288 289 290 291 292 292 293 294 294 294 294 293 293 292 291 290 289 288 287 287 287 286 286 287 287 287 287 287 287 286 286 286
265 268 271 275 277 279 281 284 285 287 289 290 291 293 294 295 295 295 295 295 295 295 295 295 295 294 293 292 291 291 290 289 288 288 288 288 289 289 288 287 287 287 287
267 270 273 275 277 280 282 284 285 288 290 292 293 294 296 297 296 297 297 297 297 297 298 298 297 296 295 295 295 295 294 293 292 291 291 291 291 292 291 291 291 291 291
271 274 276 279 281 283 285 287 289 291 292 294 295 296 297 298 298 298 298 299 300 300 300 299 298 298 297 296 296 296 296 295 294 294 294 294 295 295 295 295 294 293 293
274 277 280 282 284 286 288 289 290 291 293 295 297 298 298 298 299 299 300 300 301 301 300 300 299 299 298 298 298 298 297 297 296 295 295 294 295 296 297 298 297 296 295
281 283 286 288 288 289 289 290 292 294 297 298 298 298 298 299 299 300 301 301 301 301 301 300 300 300 300 300 301 300 300 299 299 298 297 296 296 297 298 299 300 301 299
285 287 288 289 290 292 293 294 296 297 299 299 300 300 300 301 301 301 301 301 301 301 301 301 301 300 300 300 301 301 300 300 299 300 299 297 297 298 299 300 301 303 302
287 289 290 291 292 293 294 296 297 298 299 299 300 300 300 301 301 301 301 302 302 301 301 301 301 301 300 300 301 301 301 301 300 301 301 300 300 301 301 302 304 305 304
289 291 292 293 294 295 296 297 298 299 299 300 300 300 300 301 302 302 303 303 302 302 301 301 302 302 301 301 303 303 303 302 304 305 305 304 304 303 303 304 305 306 305
292 293 294 295 296 297 298 298 298 299 299 300 300 301 301 302 303 303 304 303 303 303 303 303 303 302 302 303 304 305 305 305 306 308 308 307 307 307 306 307 308 308 308
Height
5827 5827 5827 5828 5829 5831 5833 5835 5837 5840 5843 5845 5847 5849 5851 5854 5856 5858 5859 5861 5862 5863 5863 5863 5864 5864 5865 5865 5865 5865 5865 5865 5865 5864 5864 5863 5863 5862 5861 5861 5860 5859 5858
5825 5825 5825 5826 5827 5828 5830 5831 5834 5836 5839 5841 5843 5845 5847 5849 5851 5852 5854 5855 5856 5857 5858 5858 5859 5859 5859 5859 5859 5859 5859 5859 5859 5858 5857 5857 5856 5855 5854 5853 5853 5852 5850
5823 5823 5823 5824 5824 5825 5826 5828 5830 5832 5834 5837 5839 5840 5842 5844 5846 5847 5848 5849 5851 5852 5852 5853 5853 5853 5853 5853 5853 5853 5853 5852 5852 5851 5850 5849 5848 5847 5847 5845 5844 5843 5842
5822 5821 5821 5822 5822 5823 5824 5825 5827 5828 5830 5832 5834 5836 5837 5838 5840 5841 5843 5843 5845 5846 5846 5846 5847 5847 5847 5847 5846 5846 5846 5845 5845 5844 5843 5841 5840 5839 5838 5836 5835 5833 5832
5819 5819 5819 5820 5820 5820 5821 5822 5824 5825 5827 5828 5830 5832 5833 5834 5835 5836 5837 5838 5839 5839 5840 5840 5840 5840 5840 5840 5839 5839 5838 5838 5837 5836 5835 5833 5832 5830 5828 5827 5825 5823 5822
5817 5817 5816 5817 5817 5818 5819 5819 5821 5822 5823 5824 5826 5827 5828 5829 5830 5831 5832 5832 5833 5833 5833 5833 5833 5833 5833 5832 5832 5831 5830 5829 5828 5827 5826 5824 5822 5820 5818 5816 5814 5813 5811
5813 5813 5814 5814 5814 5815 5816 5816 5817 5818 5819 5820 5821 5822 5823 5823 5824 5825 5825 5826 5826 5826 5826 5826 5826 5826 5825 5824 5824 5823 5822 5820 5819 5817 5816 5814 5812 5809 5807 5805 5803 5801 5799
5810 5810 5810 5811 5812 5812 5812 5813 5814 5814 5815 5816 5816 5817 5818 5818 5819 5819 5819 5819 5819 5819 5819 5819 5818 5818 5817 5816 5815 5814 5812 5811 5809 5807 5805 5803 5800 5798 5795 5793 5791 5789 5787
5806 5807 5807 5808 5809 5809 5809 5809 5810 5810 5811 5811 5811 5812 5812 5813 5813 5812 5812 5812 5812 5812 5811 5811 5810 5809 5808 5806 5805 5804 5802 5800 5798 5796 5794 5791 5789 5786 5783 5781 5778 5775 5773
5802 5803 5803 5804 5805 5805 5805 5805 5805 5805 5806 5806 5806 5806 5806 5806 5806 5806 5805 5805 5804 5804 5803 5802 5801 5800 5798 5797 5795 5794 5792 5789 5787 5784 5782 5779 5776 5773 5770 5767 5764 5761 5758
5798 5799 5799 5800 5800 5800 5800 5800 5801 5801 5801 5801 5800 5800 5800 5800 5800 5799 5798 5797 5796 5795 5794 5793 5791 5789 5787 5786 5784 5783 5780 5777 5774 5772 5769 5766 5763 5759 5756 5752 5749 5746 5742
5793 5794 5795 5795 5795 5795 5795 5795 5795 5795 5795 5795 5794 5794 5793 5793 5792 5791 5790 5789 5787 5786 5784 5782 5780 5778 5777 5775 5773 5771 5768 5765 5762 5759 5756 5752 5749 5745 5741 5737 5733 5729 5726
5787 5788 5788 5789 5789 5789 5789 5789 5789 5789 5789 5788 5787 5787 5786 5785 5784 5783 5781 5779 5778 5776 5774 5772 5770 5768 5765 5763 5760 5758 5755 5751 5748 5745 5741 5738 5734 5730 5726 5722 5717 5713 5709
5782 5782 5782 5783 5783 5783 5783 5783 5783 5783 5782 5782 5781 5780 5778 5777 5776 5774 5772 5770 5768 5766 5764 5761 5759 5756 5753 5750 5747 5744 5740 5737 5733 5730 5726 5722 5718 5714 5710 5705 5701 5697 5694
5775 5776 5777 5777 5776 5777 5777 5777 5777 5776 5776 5775 5774 5772 5771 5769 5767 5765 5763 5761 5758 5756 5753 5750 5746 5743 5740 5736 5733 5729 5725 5722 5718 5714 5710 5706 5702 5698 5693 5689 5685 5681 5677
5770 5770 5771 5771 5770 5770 5771 5770 5770 5769 5768 5767 5766 5764 5762 5761 5758 5756 5753 5751 5748 5745 5741 5738 5734 5730 5726 5722 5718 5714 5710 5706 5702 5698 5694 5690 5686 5682 5678 5673 5669 5665 5662
5765 5765 5765 5765 5765 5765 5764 5764 5763 5762 5761 5759 5758 5756 5754 5751 5749 5746 5743 5740 5737 5733 5729 5724 5720 5716 5712 5708 5704 5699 5695 5691 5687 5683 5679 5675 5670 5666 5662 5658 5653 5649 5646
5760 5760 5760 5760 5759 5759 5758 5757 5756 5755 5753 5751 5749 5747 5744 5741 5738 5735 5732 5729 5725 5720 5716 5712 5707 5703 5698 5694 5689 5685 5681 5676 5672 5668 5664 5660 5656 5652 5647 5643 5638 5634 5631
5755 5755 5754 5754 5753 5752 5751 5750 5749 5747 5745 5743 5740 5737 5735 5731 5728 5724 5720 5717 5712 5708 5703 5699 5694 5690 5685 5681 5676 5672 5667 5663 5659 5655 5651 5646 5642 5638 5634 5629 5625 5621 5617
5749 5749 5748 5747 5747 5745 5744 5742 5741 5739 5737 5734 5731 5728 5725 5721 5717 5713 5709 5705 5701 5696 5691 5686 5682 5677 5673 5669 5664 5660 5655 5651 5647 5642 5638 5634 5630 5626 5622 5618 5613 5609 5606
5743 5742 5742 5741 5739 5738 5736 5735 5733 5730 5728 5725 5722 5718 5715 5711 5707 5703 5698 5694 5689 5684 5680 5675 5670 5666 5662 5657 5653 5648 5644 5640 5635 5631 5627 5623 5619 5615 5611 5607 5603 5599 5595
5738 5736 5735 5734 5732 5730 5728 5726 5724 5721 5718 5715 5711 5708 5704 5700 5696 5692 5687 5683 5678 5673 5669 5664 5660 5655 5651 5647 5642 5637 5633 5629 5624 5620 5616 5613 5609 5605 5602 5598 5594 5591 5587
5731 5730 5728 5726 5724 5722 5720 5717 5714 5711 5708 5704 5700 5696 5692 5688 5684 5680 5676 5671 5667 5662 5658 5654 5649 5645 5640 5636 5632 5627 5623 5619 5615 5611 5607 5603 5600 5597 5593 5590 5587 5583 5579
5724 5723 5721 5719 5716 5714 5711 5708 5705 5701 5698 5694 5690 5686 5682 5678 5674 5669 5665 5661 5656 5652 5648 5643 5639 5634 5630 5626 5622 5618 5614 5610 5606 5602 5599 5595 5592 5589 5586 5583 5579 5576 5573
5717 5715 5713 5711 5708 5705 5702 5698 5695 5691 5687 5683 5679 5675 5671 5667 5663 5659 5655 5650 5646 5642 5637 5633 5629 5625 5621 5617 5613 5609 5605 5601 5598 5595 5592 5589 5586 5582 5579 5576 5573 5570 5566
5710 5707 5705 5702 5699 5696 5692 5689 5685 5681 5677 5673 5670 5666 5662 5658 5653 5649 5645 5641 5636 5632 5628 5624 5619 5616 5612 5608 5604 5601 5598 5594 5591 5588 5585 5582 5579 5576 5573 5570 5567 5564 5560